Stations météo

réclame
Mon MeteoGroup
Eskilstuna, Suède (2449): Température de l'air & dewpoint: 08.08.2018 19:00:00 - 14.08.2018 19:00:00 (CEST)Eskilstuna, Suède (2449): Vitesse du vent & gusts: 08.08.2018 19:00:00 - 14.08.2018 19:00:00 (CEST)Eskilstuna, Suède (2449): Direction du vent: 08.08.2018 19:00:00 - 14.08.2018 19:00:00 (CEST)Eskilstuna, Suède (2449): reduced air pressure: 08.08.2018 19:00:00 - 14.08.2018 19:00:00 (CEST)Eskilstuna, Suède (2449): visibility: 08.08.2018 19:00:00 - 14.08.2018 19:00:00 (CEST)Eskilstuna, Suède (2449): Quantités de précipitations: 08.08.2018 19:00:00 - 14.08.2018 19:00:00 (CEST)
Date & Time tt [°C] td [°C] ff [km/h] ff [knt] fx [km/h] fx [knt] dd ppp [hPa] vv [km] rr [mm]
14.08.2018 19:00:00 - - - - - - - - - -
14.08.2018 18:00:00 15,1 12,6 5 3 10 5 NNW 1008,9 39 0,0
14.08.2018 17:00:00 15,0 12,7 7 4 10 5 WNW 1009,3 19 0,2
14.08.2018 16:00:00 15,2 12,1 3 2 9 5 S 1009,6 10 1,2
14.08.2018 15:00:00 16,1 13,0 2 1 9 5 WSW 1009,7 10 1,4
14.08.2018 14:00:00 18,2 9,8 3 2 13 7 S 1009,7 50 0,0
14.08.2018 13:00:00 18,9 8,5 3 2 13 7 S 1009,5 49 0,0
14.08.2018 12:00:00 18,8 7,2 2 1 14 7 SE 1009,6 50 0,0
14.08.2018 11:00:00 19,0 9,2 6 4 14 7 E 1009,8 43 0,0
14.08.2018 10:00:00 18,1 10,7 5 3 10 5 ENE 1010,0 44 0,0
14.08.2018 09:00:00 17,0 10,8 4 2 8 4 E 1010,1 39 0,0
14.08.2018 08:00:00 12,8 9,2 0 0 3 1 N 1010,1 40 0,0
14.08.2018 07:00:00 9,9 7,0 0 0 2 1 N 1010,1 50 0,0
14.08.2018 06:00:00 7,2 4,8 0 0 1 1 N 1010,3 37 0,0
14.08.2018 05:00:00 6,0 3,7 0 0 3 2 N 1010,3 0,4 0,0
14.08.2018 04:00:00 6,3 3,5 0 0 4 2 N 1010,3 0,8 0,0
14.08.2018 03:00:00 7,4 5,7 0 0 5 3 N 1010,2 6 0,0
14.08.2018 02:00:00 7,6 4,9 2 1 5 3 SW 1010,3 31 0,0
14.08.2018 01:00:00 8,7 6,5 4 2 5 3 WSW 1010,2 50 0,0
14.08.2018 00:00:00 9,1 6,0 0 0 5 3 N 1009,9 49 0,0
13.08.2018 23:00:00 9,8 6,7 0 0 4 2 N 1009,7 48 0,0
13.08.2018 22:00:00 11,2 6,7 0 0 7 4 N 1009,8 50 0,0
13.08.2018 21:00:00 13,5 7,0 0 0 14 8 N 1009,6 50 0,0
13.08.2018 20:00:00 17,7 7,7 2 1 17 9 SW 1009,3 50 0,0
13.08.2018 19:00:00 19,9 7,6 10 6 24 13 WSW 1009,3 50 0,0
13.08.2018 18:00:00 21,1 6,6 3 2 24 13 SW 1009,3 36 0,0
13.08.2018 17:00:00 20,8 6,3 10 5 28 15 W 1009,4 47 0,0
13.08.2018 16:00:00 20,4 5,5 14 7 28 15 W 1009,4 42 0,0
13.08.2018 15:00:00 20,3 6,6 10 6 25 13 W 1009,6 40 0,0
13.08.2018 14:00:00 19,5 5,9 12 7 25 13 W 1010,1 42 0,0
13.08.2018 13:00:00 18,6 8,0 14 8 23 12 WNW 1010,2 47 0,0
13.08.2018 12:00:00 17,8 6,3 12 7 22 12 WNW 1010,2 34 0,0
13.08.2018 11:00:00 16,9 7,5 7 4 16 9 WNW 1010,2 45 0,0
13.08.2018 10:00:00 15,8 8,0 7 4 15 8 WNW 1010,3 39 0,0
13.08.2018 09:00:00 14,6 8,3 8 4 14 8 NW 1010,1 48 0,0
13.08.2018 08:00:00 13,6 9,1 6 4 12 7 NNW 1010,0 37 0,0
13.08.2018 07:00:00 11,1 8,3 2 1 6 4 WSW 1009,7 36 0,0
13.08.2018 06:00:00 9,4 7,2 4 2 9 5 WSW 1009,6 19 0,0
13.08.2018 05:00:00 9,4 6,7 3 2 10 6 WSW 1009,4 7 0,0
13.08.2018 04:00:00 10,2 8,5 8 5 12 7 WSW 1009,3 22 0,0
13.08.2018 03:00:00 10,4 8,3 7 4 18 10 WSW 1008,9 25 0,0
13.08.2018 02:00:00 11,8 9,9 8 4 18 10 WSW 1009,0 36 0,0
13.08.2018 01:00:00 12,1 10,2 12 6 18 10 WSW 1008,9 48 0,0
13.08.2018 00:00:00 12,1 10,3 9 5 12 7 WSW 1008,9 36 0,0
12.08.2018 23:00:00 12,1 10,2 9 5 11 6 W 1008,9 37 0,0
12.08.2018 22:00:00 12,0 9,7 6 3 15 8 W 1008,8 49 0,0
12.08.2018 21:00:00 12,0 9,2 6 3 19 11 W 1008,6 50 0,2
12.08.2018 20:00:00 12,5 9,5 9 5 25 13 NW 1008,2 50 0,0
12.08.2018 19:00:00 12,9 9,9 11 6 26 14 NNW 1007,7 26 0,1
12.08.2018 18:00:00 13,3 11,0 14 7 26 14 NW 1007,4 17 0,1
12.08.2018 17:00:00 13,4 10,8 14 8 29 15 NW 1007,1 47 0,1
12.08.2018 16:00:00 13,8 10,6 16 8 29 15 NNW 1006,8 29 0,0
12.08.2018 15:00:00 14,2 10,0 16 9 28 15 NNW 1006,2 45 0,0
12.08.2018 14:00:00 14,6 11,0 15 8 28 15 NNW 1005,8 38 0,0
12.08.2018 13:00:00 14,1 11,1 17 9 28 15 NNW 1005,2 50 0,0
12.08.2018 12:00:00 14,2 12,1 14 8 24 13 NW 1004,8 13 0,4
12.08.2018 11:00:00 14,1 12,0 11 6 20 11 WNW 1004,5 9 0,5
12.08.2018 10:00:00 13,6 11,5 8 4 20 11 NW 1004,4 10 0,3
12.08.2018 09:00:00 13,8 11,3 10 5 18 10 NNW 1004,2 36 0,0
12.08.2018 08:00:00 13,3 11,2 8 4 13 7 WNW 1004,2 15 0,3
12.08.2018 07:00:00 13,2 11,1 5 3 7 4 WSW 1004,4 36 0,1
12.08.2018 06:00:00 12,7 10,1 0 0 7 4 N 1004,6 16 0,2
12.08.2018 05:00:00 12,6 10,0 2 1 5 3 E 1005,1 8 0,7
12.08.2018 04:00:00 12,9 10,3 0 0 5 3 N 1005,9 9 1,4
12.08.2018 03:00:00 12,9 9,9 0 0 6 3 N 1006,3 11 1,3
12.08.2018 02:00:00 13,4 10,9 3 2 6 3 ESE 1007,2 12 0,9
12.08.2018 01:00:00 13,6 10,4 0 0 6 3 N 1007,7 15 0,4
12.08.2018 00:00:00 13,9 10,7 5 3 9 5 W 1008,2 50 0,0
11.08.2018 23:00:00 15,1 9,9 3 2 11 6 SSE 1008,9 50 0,0
11.08.2018 22:00:00 15,1 10,1 8 5 11 6 E 1009,6 50 0,0
11.08.2018 21:00:00 14,6 10,4 0 0 22 12 N 1010,1 50 0,0
11.08.2018 20:00:00 15,5 10,5 2 1 22 12 SSW 1010,8 50 0,1
11.08.2018 19:00:00 18,4 8,6 10 6 22 12 SSW 1011,2 48 0,0
11.08.2018 18:00:00 20,3 9,8 3 2 26 14 ESE 1011,2 46 0,0
11.08.2018 17:00:00 19,6 8,9 9 5 26 14 SSW 1011,9 23 0,0
11.08.2018 16:00:00 22,7 6,9 12 6 28 15 WSW 1012,4 41 0,0
11.08.2018 15:00:00 23,2 7,7 10 5 32 17 WSW 1013,0 39 0,0
11.08.2018 14:00:00 21,0 6,9 13 7 35 19 WSW 1013,6 39 0,0
11.08.2018 13:00:00 21,3 8,2 20 11 35 19 W 1014,3 46 0,0
11.08.2018 12:00:00 20,2 7,9 18 10 32 17 WSW 1014,9 39 0,0
11.08.2018 11:00:00 19,8 9,1 16 9 39 21 WSW 1015,0 35 0,0
11.08.2018 10:00:00 18,7 9,5 21 11 39 21 WSW 1014,9 33 0,0
11.08.2018 09:00:00 17,9 9,3 22 12 38 21 WSW 1014,9 41 0,0
11.08.2018 08:00:00 16,8 9,7 21 11 33 18 WSW 1014,8 37 0,0
11.08.2018 07:00:00 15,5 9,6 11 6 27 15 WSW 1014,6 40 0,0
11.08.2018 06:00:00 15,0 8,9 10 5 28 15 SW 1014,1 44 0,0
11.08.2018 05:00:00 14,6 8,1 9 5 40 22 SW 1013,7 48 0,0
11.08.2018 04:00:00 15,1 7,9 12 6 51 28 SW 1013,4 50 0,0
11.08.2018 03:00:00 15,8 8,0 24 13 51 28 WSW 1013,2 46 0,0
11.08.2018 02:00:00 15,7 8,4 20 11 37 20 WSW 1013,1 46 0,0
11.08.2018 01:00:00 16,4 7,9 15 8 37 20 SW 1013,1 50 0,0
11.08.2018 00:00:00 16,9 7,5 15 8 35 19 SW 1012,9 50 0,0
10.08.2018 23:00:00 17,0 6,8 11 6 55 30 SW 1012,5 50 0,0
10.08.2018 22:00:00 17,6 6,8 25 14 59 32 WSW 1012,2 49 0,0
10.08.2018 21:00:00 18,3 7,4 26 14 59 32 WSW 1011,4 46 0,0
10.08.2018 20:00:00 20,3 9,8 22 12 45 25 WSW 1010,4 46 0,0
10.08.2018 19:00:00 21,2 9,8 20 11 54 29 SW 1009,6 44 0,0
10.08.2018 18:00:00 22,6 10,7 20 11 54 29 SW 1009,2 38 0,0
10.08.2018 17:00:00 23,5 9,8 26 14 59 32 SW 1008,9 38 0,0
10.08.2018 16:00:00 23,8 10,1 19 11 59 32 SW 1008,4 37 0,0
10.08.2018 15:00:00 25,5 11,6 23 13 50 27 SW 1007,4 37 0,0
10.08.2018 14:00:00 26,0 15,4 24 13 50 27 WSW 1006,9 37 0,0
10.08.2018 13:00:00 26,1 15,2 21 11 37 20 SW 1006,4 30 0,0
10.08.2018 12:00:00 25,1 17,3 12 6 37 20 SSW 1006,1 33 0,0
10.08.2018 11:00:00 23,8 18,7 11 6 33 18 SW 1006,0 14 0,0
10.08.2018 10:00:00 23,2 19,1 9 5 32 17 S 1006,2 26 0,0
10.08.2018 09:00:00 21,8 18,6 4 2 21 11 ESE 1005,8 18 0,0
10.08.2018 08:00:00 20,1 17,7 11 6 48 26 ESE 1005,8 21 1,4
10.08.2018 07:00:00 - - - - 48 26 - - - -
10.08.2018 06:00:00 19,8 16,8 6 4 11 6 ESE 1007,8 13 0,0
10.08.2018 05:00:00 15,4 13,2 3 1 8 5 E 1009,3 0,5 0,0
10.08.2018 04:00:00 14,7 12,4 4 2 7 4 E 1010,4 10 0,0
10.08.2018 03:00:00 14,6 11,9 0 0 6 3 N 1011,3 13 0,0
10.08.2018 02:00:00 14,9 12,0 0 0 8 4 N 1011,5 19 0,0
10.08.2018 01:00:00 15,5 11,7 4 2 8 4 WSW 1012,5 31 0,0
10.08.2018 00:00:00 14,5 11,6 0 0 8 4 N 1013,1 20 0,0
09.08.2018 23:00:00 17,4 13,3 5 3 8 4 WSW 1013,5 40 0,0
09.08.2018 22:00:00 17,4 12,3 0 0 5 3 N 1013,0 32 0,0
09.08.2018 21:00:00 19,7 12,7 0 0 14 8 N 1013,3 29 0,0
09.08.2018 20:00:00 24,0 12,9 3 2 23 12 WSW 1013,2 46 0,0
09.08.2018 19:00:00 25,7 13,5 11 6 26 14 W 1013,4 39 0,0
09.08.2018 18:00:00 26,6 13,7 14 8 27 15 W 1013,4 34 0,0
09.08.2018 17:00:00 26,8 14,2 16 8 34 18 WSW 1013,4 34 0,0
09.08.2018 16:00:00 26,4 14,8 13 7 34 18 WSW 1013,4 32 0,0
09.08.2018 15:00:00 26,4 14,8 11 6 31 17 SW 1013,5 31 0,0
09.08.2018 14:00:00 25,6 15,9 17 9 31 17 WSW 1013,9 28 0,0
09.08.2018 13:00:00 24,9 15,8 19 11 30 16 WSW 1014,0 27 0,0
09.08.2018 12:00:00 23,8 16,1 19 11 28 15 W 1014,0 22 0,0
09.08.2018 11:00:00 23,6 17,1 18 10 24 13 W 1013,9 23 0,0
09.08.2018 10:00:00 23,9 16,9 16 9 22 12 W 1013,1 34 0,0
09.08.2018 09:00:00 23,0 17,2 10 6 16 9 WSW 1012,6 34 0,0
09.08.2018 08:00:00 21,7 16,4 5 3 16 9 SW 1012,3 37 0,0
09.08.2018 07:00:00 19,8 15,7 6 3 20 11 SSW 1012,1 40 0,0
09.08.2018 06:00:00 18,4 14,9 0 0 20 11 N 1011,4 35 0,0
09.08.2018 05:00:00 19,3 15,4 6 4 16 9 S 1011,5 45 0,0
09.08.2018 04:00:00 18,9 15,8 4 2 16 9 SE 1010,7 36 0,0
09.08.2018 03:00:00 19,9 15,1 0 0 28 15 N 1010,2 40 0,0
09.08.2018 02:00:00 21,8 16,3 8 4 28 15 SSW 1011,0 42 0,0
09.08.2018 01:00:00 22,3 15,2 5 3 18 10 S 1011,1 48 0,0
09.08.2018 00:00:00 22,6 15,7 6 3 19 10 ESE 1010,6 44 0,0
08.08.2018 23:00:00 24,1 15,0 6 3 26 14 S 1010,3 48 0,0
08.08.2018 22:00:00 24,2 14,6 6 3 26 14 S 1009,5 50 0,0
08.08.2018 21:00:00 25,0 14,2 8 5 29 16 S 1008,7 50 0,0
08.08.2018 20:00:00 26,2 13,3 9 5 32 17 SSE 1008,3 50 0,0
08.08.2018 19:00:00 26,7 13,8 10 5 32 17 S 1008,4 41 0,0

tt = Température de l'air
td = dewpoint
ff = Vitesse du vent
fx = gusts
dd = Direction du vent
ppp = reduced air pressure
vv = visibility
rr = Quantités de précipitations

stations d'obs. à proximité